Location: Antioch Baptist Church
(32.6696°N, 85.7327°W)
Time: 09:53:19
(UTC+00:00)

Cosmos-2242 - Pass Details

Date: 05 November 2020
Orbit: 592 x 616 km, 82.5° (Epoch: 26 November)

Event Time Altitude Azimuth Distance (km) Brightness Sun altitude
Rises 10:58:42 0° 359° (N) 2,886 6.4 -14.2°
Reaches altitude 10° 11:00:58 10° 4° (N) 1,980 5.6 -13.8°
Maximum altitude 11:05:16 53° 82° (E) 756 3.9 -12.9°
Drops below altitude 10° 11:09:32 10° 159° (SSE) 1,969 6.1 -12.0°
Sets 11:11:47 0° 164° (SSE) 2,868 6.9 -11.5°
